Back to catalog

STARLINK-31595

AliveCommunicationsVLEO
NORAD 59273·PAYLOAD·🇺🇸 United States

Launched Mar 19, 2024 from Vandenberg Space Force Base

Loading…

Next Passes (next 24 hours)

TLE

FreshSource: CelesTrak SupGP

Epoch: Sep 14, 2026, 21:10 UTC

1 59273C 24050V   26257.88243056  .00030667  00000+0  90614-3 0  2576
2 59273  53.1611  21.6259 0001153  78.6669 270.4447 15.34372920    17

Track STARLINK-31595 in real time with AllMySat

Download on the App Store